Погода в Осиновском

Россия / Саратовская область     51°34′34″N   46°48′23″E
темп.,
°C
ветер,
м/с
пор.,
м/с
влажн.,
%
обл.,
%
осадки,
мм/ч
давл.,
гПа
погр.,
м
4 марта, чт
чт401:00−8з49920 0.0 1013158
04:00−9зюз59920 0.0 1013139
07:00−7зюз6119337 0.0 1012259
10:00−3зюз7158963 0.0 1011618
13:00+1зюз8148998 0.0 1009881
16:00+1зюз8159199 0.1 1008819
19:00−1зюз7178597 0.0 1007656
22:000юз7168094 0.0 1006545
5 марта, пт
пт501:000юз7178393 0.0 1005571
04:00+1юз7158796 0.0 1004638
07:00+2зюз81598100 0.3 1004539
10:00+1зюз51199100 0.3 1005398
13:00+1з510100100 0.1 1006376
16:00+1з47100100 0.2 1008314
19:00−1з3593100 0.1 1010106
22:00−4сз3388100 0.1 101340
6 марта, сб
сб601:00−5ссз2289100 0.0 101321
04:00−5ссз2390100 0.0 101459
07:00−6с2391100 0.0 101367
10:00−5с3590100 0.0 1013244
13:00−4с4689100 0.0 1013400
16:00−4с4786100 0.0 1013543
19:00−7ссз4887100 0.0 1014166
22:00−10ссз468966 0.0 1016121
7 марта, вс
вс701:00−12ссз36870 0.0 1017101
04:00−14ссз23880 0.0 101829
07:00−14з22880 0.0 101820
10:00−11юз47830 0.0 1019232
13:00−7юз610820 0.0 1017538
16:00−4юз6128212 0.0 1015849
19:00−4юз71484100 0.0 1012846
22:00−4юз91777100 0.0 1010933
8 марта, пн
пн801:00−3юз91775100 0.0 10071023
04:00−3зюз91682100 0.0 1007766
07:00−3юз71493100 0.1 1006661
10:00−3юз81390100 0.6 1006755
13:000юз91484100 0.1 10051077
16:00−1з91396100 0.5 1005893
19:00−5зсз6148056 0.4 1008536
22:00−9зсз4108128 0.4 1012225